Time,TemperatureF,DewpointF,PressureIn,WindDirection,WindDirectionDegrees,WindSpeedMPH,WindSpeedGustMPH,Humidity,HourlyPrecipIn,Conditions,Clouds,dailyrainin,SoftwareType,DateUTC
2013-05-04 00:07:00,32.4,28.4,30.17,East,90,8.9,-999.0,85,-99.99,,,0.00,Acu-Link.com,2013-05-04 05:07:00,
2013-05-04 00:22:00,32.4,28.4,30.17,East,90,8.9,-999.0,85,-99.99,,,0.00,Acu-Link.com,2013-05-04 05:22:00,
2013-05-04 00:37:00,32.2,28.2,30.17,East,90,7.8,-999.0,85,-99.99,,,0.00,Acu-Link.com,2013-05-04 05:37:00,
2013-05-04 00:52:00,32.2,28.2,30.17,East,90,7.8,-999.0,85,-99.99,,,0.00,Acu-Link.com,2013-05-04 05:52:00,
2013-05-04 01:07:00,32.2,28.2,30.17,ENE,67,7.3,-999.0,85,-99.99,,,0.00,Acu-Link.com,2013-05-04 06:07:00,
2013-05-04 01:23:00,32.2,28.2,30.16,ENE,67,8.3,-999.0,85,-99.99,,,0.00,Acu-Link.com,2013-05-04 06:23:00,
2013-05-04 01:38:00,32.2,28.5,30.16,East,90,6.8,-999.0,86,-99.99,,,0.00,Acu-Link.com,2013-05-04 06:38:00,
2013-05-04 01:53:00,32.0,28.3,30.15,East,90,5.3,-999.0,86,-99.99,,,0.00,Acu-Link.com,2013-05-04 06:53:00,
2013-05-04 02:08:00,32.0,28.6,30.17,ESE,112,4.7,-999.0,87,-99.99,,,0.00,Acu-Link.com,2013-05-04 07:08:00,
2013-05-04 02:23:00,31.8,28.4,30.16,ESE,112,4.7,-999.0,87,-99.99,,,0.00,Acu-Link.com,2013-05-04 07:23:00,
2013-05-04 02:38:00,31.5,28.1,30.15,ESE,112,6.3,-999.0,87,-99.99,,,0.00,Acu-Link.com,2013-05-04 07:38:00,
2013-05-04 02:53:00,31.5,28.1,30.14,East,90,4.7,-999.0,87,-99.99,,,0.00,Acu-Link.com,2013-05-04 07:53:00,
2013-05-04 03:09:00,31.5,28.1,30.15,East,90,5.3,-999.0,87,-99.99,,,0.00,Acu-Link.com,2013-05-04 08:09:00,
2013-05-04 03:24:00,31.5,28.1,30.15,ESE,112,6.8,-999.0,87,-99.99,,,0.00,Acu-Link.com,2013-05-04 08:24:00,
2013-05-04 03:39:00,31.6,28.2,30.15,ESE,112,4.2,-999.0,87,-99.99,,,0.00,Acu-Link.com,2013-05-04 08:39:00,
2013-05-04 03:54:00,31.6,28.2,30.15,East,90,3.7,-999.0,87,-99.99,,,0.00,Acu-Link.com,2013-05-04 08:54:00,
2013-05-04 04:09:00,31.6,27.9,30.15,East,90,4.7,-999.0,86,-99.99,,,0.00,Acu-Link.com,2013-05-04 09:09:00,
2013-05-04 04:24:00,31.8,28.1,30.14,East,90,6.8,-999.0,86,-99.99,,,0.00,Acu-Link.com,2013-05-04 09:24:00,
2013-05-04 04:39:00,31.8,28.1,30.15,ESE,112,7.8,-999.0,86,-99.99,,,0.00,Acu-Link.com,2013-05-04 09:39:00,
2013-05-04 04:54:00,31.8,28.1,30.14,East,90,7.3,-999.0,86,-99.99,,,0.00,Acu-Link.com,2013-05-04 09:54:00,
2013-05-04 05:09:00,31.6,28.2,30.14,East,90,5.3,-999.0,87,-99.99,,,0.00,Acu-Link.com,2013-05-04 10:09:00,
2013-05-04 05:25:00,31.6,28.2,30.14,East,90,6.8,-999.0,87,-99.99,,,0.00,Acu-Link.com,2013-05-04 10:25:00,
2013-05-04 05:40:00,31.6,28.2,30.15,East,90,6.3,-999.0,87,-99.99,,,0.00,Acu-Link.com,2013-05-04 10:40:00,
2013-05-04 05:55:00,31.6,28.2,30.16,ESE,112,5.3,-999.0,87,-99.99,,,0.00,Acu-Link.com,2013-05-04 10:55:00,
2013-05-04 06:10:00,31.6,28.2,30.16,ENE,67,5.8,-999.0,87,-99.99,,,0.01,Acu-Link.com,2013-05-04 11:10:00,
2013-05-04 06:26:00,31.6,28.2,30.15,ENE,67,7.3,-999.0,87,-99.99,,,0.01,Acu-Link.com,2013-05-04 11:26:00,
2013-05-04 06:41:00,31.8,28.4,30.15,ENE,67,7.3,-999.0,87,-99.99,,,0.01,Acu-Link.com,2013-05-04 11:41:00,
2013-05-04 06:56:00,31.6,28.2,30.16,ENE,67,6.3,-999.0,87,-99.99,,,0.01,Acu-Link.com,2013-05-04 11:56:00,
2013-05-04 07:26:00,31.8,28.1,30.16,East,90,6.3,-999.0,86,-99.99,,,0.02,Acu-Link.com,2013-05-04 12:26:00,
2013-05-04 07:41:00,31.8,28.1,30.16,ESE,112,6.8,-999.0,86,-99.99,,,0.02,Acu-Link.com,2013-05-04 12:41:00,
2013-05-04 07:57:00,31.8,28.1,30.15,ENE,67,10.9,-999.0,86,-99.99,,,0.02,Acu-Link.com,2013-05-04 12:57:00,
2013-05-04 08:12:00,31.8,28.1,30.15,ESE,112,7.8,-999.0,86,-99.99,,,0.03,Acu-Link.com,2013-05-04 13:12:00,
2013-05-04 08:27:00,31.8,28.1,30.15,ENE,67,6.8,-999.0,86,-99.99,,,0.03,Acu-Link.com,2013-05-04 13:27:00,
2013-05-04 08:42:00,31.8,28.4,30.14,East,90,8.3,-999.0,87,-99.99,,,0.03,Acu-Link.com,2013-05-04 13:42:00,
2013-05-04 08:57:00,32.0,28.6,30.15,East,90,7.8,-999.0,87,-99.99,,,0.03,Acu-Link.com,2013-05-04 13:57:00,
2013-05-04 09:12:00,32.2,28.5,30.15,ENE,67,9.4,-999.0,86,-99.99,,,0.03,Acu-Link.com,2013-05-04 14:12:00,
2013-05-04 09:27:00,32.2,28.8,30.16,ESE,112,7.8,-999.0,87,-99.99,,,0.04,Acu-Link.com,2013-05-04 14:27:00,
2013-05-04 09:42:00,32.2,28.8,30.16,East,90,5.3,-999.0,87,-99.99,,,0.04,Acu-Link.com,2013-05-04 14:42:00,
2013-05-04 09:58:00,32.5,29.1,30.15,ENE,67,6.8,-999.0,87,-99.99,,,0.04,Acu-Link.com,2013-05-04 14:58:00,
2013-05-04 10:13:00,32.7,29.3,30.16,ESE,112,5.8,-999.0,87,-99.99,,,0.04,Acu-Link.com,2013-05-04 15:13:00,
2013-05-04 10:28:00,32.7,29.3,30.16,East,90,9.4,-999.0,87,-99.99,,,0.05,Acu-Link.com,2013-05-04 15:28:00,
2013-05-04 10:43:00,32.7,29.3,30.16,ENE,67,8.9,-999.0,87,-99.99,,,0.06,Acu-Link.com,2013-05-04 15:43:00,
2013-05-04 10:58:00,32.9,29.5,30.17,East,90,8.3,-999.0,87,-99.99,,,0.06,Acu-Link.com,2013-05-04 15:58:00,
2013-05-04 11:13:00,32.9,29.5,30.17,ESE,112,7.3,-999.0,87,-99.99,,,0.07,Acu-Link.com,2013-05-04 16:13:00,
2013-05-04 11:28:00,33.3,29.9,30.17,East,90,6.8,-999.0,87,-99.99,,,0.07,Acu-Link.com,2013-05-04 16:28:00,
2013-05-04 11:43:00,33.4,30.0,30.17,ENE,67,7.8,-999.0,87,-99.99,,,0.07,Acu-Link.com,2013-05-04 16:43:00,
2013-05-04 11:59:00,33.6,29.9,30.18,East,90,6.3,-999.0,86,-99.99,,,0.07,Acu-Link.com,2013-05-04 16:59:00,
2013-05-04 12:14:00,33.8,30.3,30.18,ESE,112,6.8,-999.0,87,-99.99,,,0.07,Acu-Link.com,2013-05-04 17:14:00,
2013-05-04 12:29:00,34.0,30.3,30.18,East,90,7.8,-999.0,86,-99.99,,,0.07,Acu-Link.com,2013-05-04 17:29:00,
2013-05-04 12:44:00,34.0,30.5,30.18,East,90,7.3,-999.0,87,-99.99,,,0.07,Acu-Link.com,2013-05-04 17:44:00,
2013-05-04 12:59:00,33.8,30.3,30.18,ENE,67,6.3,-999.0,87,-99.99,,,0.07,Acu-Link.com,2013-05-04 17:59:00,
2013-05-04 13:14:00,34.2,30.7,30.18,ESE,112,7.3,-999.0,87,-99.99,,,0.07,Acu-Link.com,2013-05-04 18:14:00,
2013-05-04 13:29:00,34.2,30.7,30.17,ENE,67,5.8,-999.0,87,-99.99,,,0.07,Acu-Link.com,2013-05-04 18:29:00,
2013-05-04 13:44:00,34.5,31.0,30.16,NE,45,8.3,-999.0,87,-99.99,,,0.07,Acu-Link.com,2013-05-04 18:44:00,
2013-05-04 13:59:00,34.9,31.4,30.16,NE,45,8.3,-999.0,87,-99.99,,,0.07,Acu-Link.com,2013-05-04 18:59:00,
2013-05-04 14:14:00,34.7,31.2,30.15,East,90,7.3,-999.0,87,-99.99,,,0.07,Acu-Link.com,2013-05-04 19:14:00,
2013-05-04 14:29:00,34.9,31.4,30.16,East,90,6.3,-999.0,87,-99.99,,,0.07,Acu-Link.com,2013-05-04 19:29:00,
2013-05-04 14:44:00,34.9,31.4,30.16,ESE,112,7.8,-999.0,87,-99.99,,,0.07,Acu-Link.com,2013-05-04 19:44:00,
2013-05-04 15:00:00,35.1,31.9,30.14,East,90,8.9,-999.0,88,-99.99,,,0.07,Acu-Link.com,2013-05-04 20:00:00,
2013-05-04 15:15:00,35.4,32.2,30.15,NNE,22,8.9,-999.0,88,-99.99,,,0.07,Acu-Link.com,2013-05-04 20:15:00,
2013-05-04 15:30:00,37.6,34.4,30.16,ENE,67,6.8,-999.0,88,-99.99,,,0.07,Acu-Link.com,2013-05-04 20:30:00,
2013-05-04 15:45:00,35.8,32.6,30.16,East,90,6.8,-999.0,88,-99.99,,,0.07,Acu-Link.com,2013-05-04 20:45:00,
2013-05-04 16:00:00,36.0,32.8,30.15,East,90,5.3,-999.0,88,-99.99,,,0.07,Acu-Link.com,2013-05-04 21:00:00,
2013-05-04 16:15:00,35.8,32.6,30.15,ENE,67,5.8,-999.0,88,-99.99,,,0.07,Acu-Link.com,2013-05-04 21:15:00,
2013-05-04 16:31:00,35.8,32.6,30.15,East,90,7.8,-999.0,88,-99.99,,,0.07,Acu-Link.com,2013-05-04 21:31:00,
2013-05-04 16:46:00,36.0,32.8,30.15,East,90,6.3,-999.0,88,-99.99,,,0.07,Acu-Link.com,2013-05-04 21:46:00,
2013-05-04 17:01:00,36.0,32.8,30.15,NE,45,8.3,-999.0,88,-99.99,,,0.07,Acu-Link.com,2013-05-04 22:01:00,
2013-05-04 17:16:00,36.3,33.1,30.15,NE,45,7.3,-999.0,88,-99.99,,,0.07,Acu-Link.com,2013-05-04 22:16:00,
2013-05-04 17:31:00,36.3,32.8,30.16,NE,45,5.3,-999.0,87,-99.99,,,0.07,Acu-Link.com,2013-05-04 22:31:00,
2013-05-04 17:47:00,36.3,32.8,30.16,East,90,6.3,-999.0,87,-99.99,,,0.07,Acu-Link.com,2013-05-04 22:47:00,
2013-05-04 18:02:00,38.3,35.1,30.17,East,90,7.3,-999.0,88,-99.99,,,0.07,Acu-Link.com,2013-05-04 23:02:00,
2013-05-04 18:17:00,36.5,33.3,30.17,ESE,112,4.2,-999.0,88,-99.99,,,0.07,Acu-Link.com,2013-05-04 23:17:00,
2013-05-04 18:32:00,36.3,33.1,30.17,East,90,5.8,-999.0,88,-99.99,,,0.07,Acu-Link.com,2013-05-04 23:32:00,
2013-05-04 18:47:00,36.1,32.9,30.16,East,90,3.7,-999.0,88,-99.99,,,0.07,Acu-Link.com,2013-05-04 23:47:00,
2013-05-04 19:03:00,36.3,33.1,30.17,East,90,3.7,-999.0,88,-99.99,,,0.07,Acu-Link.com,2013-05-05 00:03:00,
2013-05-04 19:18:00,36.3,33.1,30.17,ESE,112,4.7,-999.0,88,-99.99,,,0.07,Acu-Link.com,2013-05-05 00:18:00,
2013-05-04 19:33:00,36.3,33.1,30.18,East,90,4.2,-999.0,88,-99.99,,,0.07,Acu-Link.com,2013-05-05 00:33:00,
2013-05-04 19:48:00,36.3,33.1,30.17,NE,45,4.2,-999.0,88,-99.99,,,0.07,Acu-Link.com,2013-05-05 00:48:00,
2013-05-04 20:03:00,36.1,32.9,30.17,East,90,4.7,-999.0,88,-99.99,,,0.07,Acu-Link.com,2013-05-05 01:03:00,
2013-05-04 20:19:00,35.8,32.6,30.18,ESE,112,5.3,-999.0,88,-99.99,,,0.07,Acu-Link.com,2013-05-05 01:19:00,
2013-05-04 20:34:00,35.6,32.4,30.18,East,90,4.7,-999.0,88,-99.99,,,0.07,Acu-Link.com,2013-05-05 01:34:00,
2013-05-04 20:49:00,35.6,32.1,30.18,ESE,112,4.2,-999.0,87,-99.99,,,0.07,Acu-Link.com,2013-05-05 01:49:00,
2013-05-04 21:04:00,35.8,32.3,30.18,ENE,67,5.3,-999.0,87,-99.99,,,0.07,Acu-Link.com,2013-05-05 02:04:00,
2013-05-04 21:19:00,35.8,32.3,30.18,East,90,4.7,-999.0,87,-99.99,,,0.07,Acu-Link.com,2013-05-05 02:19:00,
2013-05-04 21:35:00,35.6,32.1,30.19,East,90,4.2,-999.0,87,-99.99,,,0.07,Acu-Link.com,2013-05-05 02:35:00,
2013-05-04 21:50:00,35.6,32.1,30.18,East,90,4.7,-999.0,87,-99.99,,,0.07,Acu-Link.com,2013-05-05 02:50:00,
2013-05-04 22:05:00,35.6,32.1,30.18,East,90,3.7,-999.0,87,-99.99,,,0.07,Acu-Link.com,2013-05-05 03:05:00,
2013-05-04 22:20:00,35.4,31.9,30.18,East,90,4.2,-999.0,87,-99.99,,,0.07,Acu-Link.com,2013-05-05 03:20:00,
2013-05-04 22:35:00,35.6,32.1,30.18,ESE,112,4.7,-999.0,87,-99.99,,,0.07,Acu-Link.com,2013-05-05 03:35:00,
2013-05-04 22:51:00,35.1,31.6,30.18,ESE,112,3.7,-999.0,87,-99.99,,,0.07,Acu-Link.com,2013-05-05 03:51:00,
2013-05-04 23:06:00,35.1,31.6,30.17,East,90,4.2,-999.0,87,-99.99,,,0.00,Acu-Link.com,2013-05-05 04:06:00,
2013-05-04 23:21:00,35.1,31.3,30.18,ESE,112,5.3,-999.0,86,-99.99,,,0.00,Acu-Link.com,2013-05-05 04:21:00,
2013-05-04 23:36:00,35.2,31.4,30.17,East,90,6.8,-999.0,86,-99.99,,,0.00,Acu-Link.com,2013-05-05 04:36:00,
2013-05-04 23:51:00,35.8,31.7,30.17,ESE,112,5.8,-999.0,85,-99.99,,,0.00,Acu-Link.com,2013-05-05 04:51:00,